Regional Weather Roundup
Issued by NWS

Home | Current Version | Previous Version | Text Only | Print | Product List | Glossary Off
Versions: 1 2 3 4 5 6 7 8 9 10 11 12 13 14 15 16 17 18 19 20 21 22 23 24 25 26 27 28 29 30 31 32 33 34 35 36 37 38 39 40 41 42 43 44 45 46 47 48 49 50

000
ASUS45 KTFX 300504
RWRMT
MONTANA HOURLY WEATHER ROUNDUP
NATIONAL WEATHER SERVICE GREAT FALLS MT
1004 PM MST THU JAN 29 2015

NOTE: "FAIR" INDICATES FEW OR NO CLOUDS BELOW 12000 FEET WITH NO
SIGNIFICANT WEATHER AND/OR OBSTRUCTIONS TO VISIBILITY.

* THESE STATIONS ARE NOT UNDER NWS QUALITY CONTROL. THEY DO NOT
   REPORT WEATHER SUCH AS PRECIPITATION OR FOG.

MTZ001>007-043-300600-
WEST OF THE DIVIDE
CITY           SKY/WX    TMP DP  RH WIND       PRES   REMARKS
KALISPELL      FOG       14  14 100 CALM      30.36S
MISSOULA       PTCLDY    25  21  85 CALM      30.37S
BUTTE          MOCLDY    25  21  85 S3        30.32S
MULLAN PASS    PTCLDY    30  21  69 S5        30.28S WCI  25
* ANACONDA     MOCLDY    27  21  78 SW6        N/A   WCI  20
* ESSEX        N/A       20  18  92 N/A        N/A
* LINCOLN      N/A       24  18  78 NE2        N/A
* LOOKOUT PASS N/A       28  24  85 SE2        N/A
* POLSON       N/A       26  25  96 SE2        N/A
* RONAN APT    PTCLDY    25  23  92 N/A        N/A
* SEELEY LAKE  N/A       17  15  92 NE1        N/A
* THOMP F APT  PTCLDY    29  21  72 N5         N/A   WCI  24
* YAAK HILL    N/A       28  25  89 N/A        N/A
$$

MTZ008-052>055-300600-
SOUTHWEST MONTANA
CITY           SKY/WX    TMP DP  RH WIND       PRES   REMARKS
BOZEMAN        MOCLDY    27  21  78 S9        30.31F WCI  18
DILLON         MOCLDY    28  21  75 SW10      30.30S WCI  19
* W YELLOWSTON MOCLDY    18  16  92 N/A        N/A
* THREE FORKS  MOCLDY   N/A N/A N/A N/A        N/A
* BOULDER HILL N/A       30  19  64 S9         N/A   WCI  22
* MONIDA PASS  N/A       12  12 100 SW6        N/A   WCI   2
* RAYNOLDS PAS N/A       20   5  52 S8         N/A   WCI  10
* WHITEHALL    N/A       28  22  78 NW5        N/A   WCI  22
* WISE RIVER   N/A       21  16  81 W5         N/A   WCI  14
$$

MTZ009>010-012-014-046-048-049-054-300600-
EAST SLOPES AND CENTRAL MONTANA
CITY           SKY/WX    TMP DP  RH WIND       PRES   REMARKS
CUT BANK       CLEAR     30  16  56 NW14      30.19R WCI  19
GREAT FALLS    CLEAR     34  19  54 SW13      30.21S WCI  25
HELENA         MOCLDY    30  27  89 S3        30.29S
MALMSTROM AFB  CLEAR     36  18  48 SW6       30.22S WCI  31
* DEARBORN     N/A       40  21  47 SW3        N/A
* EAST GLACIER N/A       33   9  36 NW11       N/A   WCI  24
* MONARCH      N/A       34   5  29 NE1G8      N/A
* PENDROY      N/A       40   6  24 W17        N/A   WCI  31
* ROGERS PASS  N/A       31  17  56 W3G9       N/A
* SWEET GRASS  N/A       35  14  42 W14        N/A   WCI  26
$$

MTZ011-013-016-021-035-040-045-047-050-051-300600-
NORTH CENTRAL MONTANA
CITY           SKY/WX    TMP DP  RH WIND       PRES   REMARKS
HAVRE          PTCLDY    25  23  92 S7        30.18F WCI  17
LEWISTOWN      PTCLDY    30  21  69 SE6       30.20F WCI  24
* CHESTER      N/A       29  26  89 N/A        N/A
* DENTON       N/A       33  26  75 W4         N/A
* GEYSER       N/A       36  12  37 W8         N/A   WCI  30
* JUDITH GAP   N/A       27  19  72 SE4        N/A
* LOMA         N/A       32  30  92 W2         N/A
$$

MTZ017>020-022>027-061-062-300600-
NORTHEAST MONTANA
CITY           SKY/WX    TMP DP  RH WIND       PRES   REMARKS
GLASGOW        PTCLDY    28  25  89 E10       30.19F WCI  19
GLENDIVE       CLEAR     28  19  69 S9        30.25F WCI  19
JORDAN         PTCLDY    34  27  76 W3        30.19F
SIDNEY         CLEAR     25  19  78 CALM      30.27F
WOLF POINT     CLEAR     27  21  78 E5        30.23F WCI  21
* BEAVER HILL  N/A       31  18  59 SE17       N/A   WCI  20
* CIRCLE       N/A       35  27  73 SW3G9      N/A
* LINDSAY DVD  N/A       31  21  66 SW2G9      N/A
* NAVAJO       N/A       24  21  88 S8         N/A   WCI  15
* SACO         N/A       20  18  92 N/A        N/A
$$

MTZ028>042-056>058-300600-
SOUTHCENTRAL AND SOUTHEAST MONTANA
CITY           SKY/WX    TMP DP  RH WIND       PRES   REMARKS
BAKER          CLEAR     28  18  66 SE10      30.27F WCI  19
BILLINGS       PTCLDY    39  27  62 SW14      30.24R WCI  31
LIVINGSTON     PTCLDY    34  21  59 NW10      30.28R WCI  26
MILES CITY     CLEAR     32  23  69 S10       30.24F WCI  24
* LAUREL APT   PTCLDY    39  21  48 SW8        N/A   WCI  33
* ROUNDUP APT  PTCLDY    36  27  70 N/A        N/A
* ALZADA       N/A       31  16  54 NE4        N/A
* HYSHAM       N/A       38  19  46 W3         N/A
* LAME DEER    N/A       37  21  52 S5         N/A   WCI  33
* REED POINT   N/A       28  26  92 N/A        N/A
* ROSCOE HILL  N/A       36   6  28 SW5        N/A   WCI  32
$$

REGIONAL REPORTS...DAKOTAS
CITY           SKY/WX    TMP DP  RH WIND       PRES   REMARKS
WILLISTON      CLEAR     27  19  72 SE3       30.28F
DICKINSON      CLEAR     21  18  88 S10       30.28F WCI  10
CROSBY         CLEAR     23  23 100 S5        30.28F WCI  16
WATFORD CITY   CLEAR     25  21  85 SE6       30.27F WCI  18
BISMARCK       CLEAR     18  14  84 SE5       30.43F WCI  11
GRAND FORKS    MOCLDY     7   0  73 CALM      30.58F
FARGO          PTCLDY     9   0  66 NE6       30.58F WCI  -1
BUFFALO SD     CLEAR     27  12  53 S9        30.23F WCI  18
RAPID CITY     PTCLDY    27  12  53 SE7       30.32F WCI  19
$$

REGIONAL REPORTS...WYOMING/IDAHO/WASHINGTON
CITY           SKY/WX    TMP DP  RH WIND       PRES   REMARKS
GILLETTE       CLEAR     28  21  75 S12       30.25F WCI  18
SHERIDAN       PTCLDY    27  19  72 CALM      30.22F
CODY           PTCLDY    28  28 100 CALM      30.26F
YELLOWSTONE LA CLOUDY     7   3  83 CALM      30.35F
SALMON         MOCLDY    18  12  77 CALM      30.39S
MULLAN PASS    PTCLDY    30  21  69 S5        30.28S WCI  25
SAND POINT     CLEAR     28  28 100 CALM      30.39S
SPOKANE        FOG       28  28 100 CALM      30.36S VSB 3/4

$$



USA.gov is the U.S. government's official web portal to all federal, state and local government web resources and services.